Regional Weather Roundup
Issued by NWS

Home | Current Version | Previous Version | Text Only | Print | Product List | Glossary Off
Versions: 1 2 3 4 5 6 7 8 9 10 11 12 13 14 15 16 17 18 19 20 21 22 23 24 25 26 27 28 29 30 31 32 33 34 35 36 37 38 39 40 41 42 43 44 45 46 47 48 49 50

000
ASUS43 KMPX 292201
RWRMN
WEATHER ROUNDUP FOR MINNESOTA
NATIONAL WEATHER SERVICE TWIN CITIES/CHANHASSEN MN
500 PM CDT FRI APR 29 2016


NOTE: "FAIR" INDICATES FEW OR NO CLOUDS BELOW 12,000 FEET WITH NO
SIGNIFICANT WEATHER AND/OR OBSTRUCTIONS TO VISIBILITY. N/A MEANS
CURRENT SKY AND/OR WEATHER CONDITIONS ARE NOT AVAILABLE.

MNZ060>063-068>070-292300-
   Twin Cities Metro

CITY           SKY/WX    TMP DP  RH WIND       PRES   REMARKS
TWIN CITIES    MOSUNNY   59  33  37 NE6       30.11F
ST PAUL        SUNNY     59  35  40 NE8       30.11F
CRYSTAL        SUNNY     60  33  36 SE7       30.10F
BLAINE         MOSUNNY   61  34  36 NE8       30.11F
EDEN PRAIRIE   SUNNY     59  32  36 VRB5      30.10F
SOUTH ST PAUL  SUNNY     58  32  37 CALM      30.10F
LAKE ELMO      FAIR      59  36  41 E6        30.11F
$$
MNZ001>005-007-008-013>017-022>024-027-028-292300-
   Northwest Minnesota

CITY           SKY/WX    TMP DP  RH WIND       PRES   REMARKS
BEMIDJI        SUNNY     60  32  35 E9G17     30.11F
HALLOCK        SUNNY     64  21  19 E16       30.14F
ROSEAU         SUNNY     57  37  47 NE17G23   30.18S
WARROAD        SUNNY     55  36  47 NE8       30.20F
THIEF RVR FALL SUNNY     61  30  31 NE14      30.14F
CROOKSTON      SUNNY     63  30  29 E8G20     30.14R
FOSSTON        SUNNY     61  34  36 E9        30.13S
DETROIT LAKES  SUNNY     61  32  33 SE9G16    30.11R
MOORHEAD       SUNNY     63  32  31 NE12      30.10S
PARK RAPIDS    SUNNY     60  28  29 E7G17     30.10F
MAHNOMEN       FAIR      60  34  36 E15G21    30.10F
$$
MNZ006-009>011-018-025>026-292300-
   North Central Minnesota

CITY           SKY/WX    TMP DP  RH WIND       PRES   REMARKS
BAUDETTE       SUNNY     57  31  37 N15       30.16F
FLAG ISLAND    SUNNY     54  30  40 N12       30.19S
INTL FALLS     SUNNY     56  30  37 NE10G18   30.17F
WASKISH        SUNNY     59  32  36 NE12      30.14F
BIG FORK       MOSUNNY   61  30  31 N9        30.13S
LONGVILLE      SUNNY     61  28  29 NE7       30.10F
GRAND RAPIDS   SUNNY     57  28  33 NE14      30.13F
CRANE LAKE     SUNNY     54  30  40 E6        30.20R
ORR            SUNNY     57  27  30 CALM      30.14R
COOK           MOSUNNY   54  32  43 E3        30.17R
WALKER         FAIR      58  32  37 NE7       30.11F
$$
MNZ012-019>021-037-292300-
   Northeast Minnesota

CITY           SKY/WX    TMP DP  RH WIND       PRES   REMARKS
DULUTH         MOSUNNY   50  29  44 E18       30.15F
ELY            PTSUNNY   48  28  46 NE5       30.18S
HIBBING        SUNNY     55  30  38 N8G17     30.14R
EVELETH        SUNNY     54  30  40 NE8       30.16R
DULUTH HARBOR  SUNNY     43  36  75 NE8       30.19S
TWO HARBORS    SUNNY     52  36  54 E8        30.16R
SILVER BAY     SUNNY     46  30  53 E8        30.17R
GRAND MARAIS     N/A     42  31  64 SW3       30.20F
G MARAIS ARPRT CLOUDY    45  27  49 SE3       30.18S
$$
MNZ029>031-032-039>041-046>048-054>057-064-292300-
   West Central Minnesota

CITY           SKY/WX    TMP DP  RH WIND       PRES   REMARKS
FERGUS FALLS   MOSUNNY   61  34  36 E3        30.08S
WHEATON        CLOUDY    61  37  41 SE5       30.12S
MORRIS         CLOUDY    57  39  51 S8        30.11S
ALEXANDRIA     PTSUNNY   59  32  36 S7        30.11S
ELBOW LAKE     CLOUDY    57  36  45 SE5       30.12R
WADENA         MOSUNNY   61  34  36 NE7       30.09S
GLENWOOD       MOSUNNY   57  36  44 CALM      30.12S
APPLETON       CLOUDY    57  37  47 E6        30.12S
BENSON         CLOUDY    57  34  41 E3        30.12S
ORTONVILLE     CLOUDY    55  37  50 SE6       30.12S
MADISON        CLOUDY    55  39  54 E7        30.12S
WILLMAR        PTSUNNY   57  39  51 E8        30.13S
$$
MNZ033>034-036-042>043-049>051-058-059-292300-
   Central Minnesota

CITY           SKY/WX    TMP DP  RH WIND       PRES   REMARKS
ST CLOUD       MOSUNNY   59  32  36 E8        30.11S
SAUK CENTRE    FAIR      58  35  40 E8        30.11S
PAYNESVILLE    MOSUNNY   58  33  38 SE7       30.12R
AITKIN         SUNNY     63  23  22 NE10G16   30.10S
PINE RIVER     SUNNY     61  36  39 SE14G23   30.13R
BRAINERD       SUNNY     59  31  34 E7        30.11S
STAPLES        SUNNY     61  28  29 NE5       30.10S
LONG PRAIRIE   FAIR      57  34  41 SE6       30.11R
LITTLE FALLS   SUNNY     57  28  33 NE7       30.12R
LITCHFIELD     SUNNY     59  36  41 E6G16     30.12R
BUFFALO        SUNNY     58  33  38 SE6       30.12S
MAPLE LAKE     SUNNY     59  37  45 E5        30.12F
HUTCHINSON     MOSUNNY   57  41  54 E9        30.13S
$$
MNZ037-044-045-052-053-292300-
   East Central Minnesota

CITY           SKY/WX    TMP DP  RH WIND       PRES   REMARKS
PRINCETON      MOSUNNY   61  32  33 E6G16     30.11F
MORA           SUNNY     57  32  38 NE8       30.13S
CAMBRIDGE      SUNNY     63  39  42 E8        30.09S
RUSH CITY      SUNNY     61  33  35 E8        30.11S
MOOSE LAKE     SUNNY     59  32  36 N7        30.11F
HINCKLEY       FAIR      59  32  36 E9        30.12S
CLOQUET        SUNNY     52  27  37 E13G22    30.14S
MCGREGOR       SUNNY     59  32  36 CALM      30.12R
$$
MNZ071>073-080-081-089-090-097-098-292300-
   Southwest Minnesota

CITY           SKY/WX    TMP DP  RH WIND       PRES   REMARKS
MONTEVIDEO     CLOUDY    55  39  54 SE7       30.14S
GRANITE FALLS  CLOUDY    56  40  53 E5        30.13S
CANBY          CLOUDY    56  42  59 SE7       30.13F
MARSHALL       CLOUDY    52  39  61 SE9       30.12F
REDWOOD FALLS  CLOUDY    54  38  54 E7        30.12R
OLIVIA         CLOUDY    55  37  50 E8        30.11S
PIPESTONE      CLOUDY    50  37  62 E6        30.09F
WINDOM         CLOUDY    54  39  58 CALM      30.10F
WORTHINGTON    CLOUDY    49  39  68 NE12      30.09F
JACKSON        CLOUDY    50  37  62 SE6       30.11F
TRACY          CLOUDY    53  42  65 E7        30.11F
SLAYTON        CLOUDY    51  40  68 E5        30.12F
$$
MNZ065>067-074>077-082>085-091>093-292300-
   South Central Minnesota

CITY           SKY/WX    TMP DP  RH WIND       PRES   REMARKS
MANKATO        MOSUNNY   55  36  47 SE8       30.11S
NEW ULM        CLOUDY    55  37  50 E6        30.11S
ST JAMES       CLOUDY    48  36  61 E6        30.12S
FAIRMONT       CLOUDY    52  36  54 E9        30.10F
GLENCOE        MOSUNNY   58  39  50 E6        30.11S
OWATONNA       PTSUNNY   54  39  58 E10       30.12R
WASECA         PTSUNNY   54  39  58 NE7       30.12S
$$
MNZ078>079-086>088-094>096-292300-
   Southeast Minnesota

CITY           SKY/WX    TMP DP  RH WIND       PRES   REMARKS
ROCHESTER      CLOUDY    50  39  66 E9        30.13S
RED WING       MOSUNNY   57  37  47 S7        30.11S
STANTON        CLOUDY    56  40  53 SE7       30.10S
DODGE CENTER   PTSUNNY   54  39  58 E7        30.12R
WINONA         CLOUDY    52  39  62 S5        30.13R
AUSTIN         CLOUDY    48  39  71 E8        30.11S
PRESTON        CLOUDY    49  37  62 E7        30.12S
$$
ABBREVIATIONS USED IN REMARKS
   TC - TEMPERATURES IN CELSIUS
  WCI - WIND CHILL INDEX
   HX - HEAT INDEX
  VSB - VISIBILITY
$$



USA.gov is the U.S. government's official web portal to all federal, state and local government web resources and services.